Terminal Aerodrome Forecast
Issued by NWS Blacksburg, VA

Current Version | Previous Version | Graphics & Text | Print | Product List | Glossary On
Versions: 1 2 3 4 5 6 7 8 9 10 11 12 13 14 15 16 17 18 19 20 21 22 23 24 25 26 27 28 29 30 31 32 33 34 35 36 37 38 39 40 41 42 43 44 45 46 47 48 49 50
477
FTUS41 KRNK 161203 AAA
TAFBLF
TAF AMD
KBLF 161203Z 1612/1712 24005KT P6SM OVC050
      TEMPO 1617/1619 4SM -SN OVC040
     FM162300 29006KT 3SM -SN OVC025
     FM170500 30006KT P6SM OVC030
     FM170800 32006KT P6SM OVC025=

USA.gov is the U.S. government's official web portal to all federal, state and local government web resources and services.